Find Elektro-L No. 1

NORAD ID: 37344 Int'l Des: 2011-001 Owner: RGMS/NPOL Country: RU operational
HEOCIRCULAR

現在のビュー

3D地球を読み込み中...

About Elektro-L No. 1

Elektro-L No. 1 (NORAD 37344) is a satellite launched Jan 20, 2011 by RGMS/NPOL of RU. It operates in HEO, CIRCULAR orbit with a mass of 1620.00 kg.

次回通過

Passes for default location (London). Set your location on the main map for personalized predictions.

高度履歴

Loading altitude history...

軌道要素

1 37344U 11001A 26194.67937119 .00000015 00000-0 00000+0 0 9994
2 37344 9.7439 54.2315 0003973 36.3648 323.1660 1.00159905 56740
Epoch: Jul 13, 2026 • Age: 15 hours

現在のステータス

高度 35835.3 km
遠地点 / 近地点 N/A
速度 3.07 km/s
衛星直下点 -5.98°S, 123°W
打ち上げ日 Jan 20, 2011
運用期間 15.4 years
タイプ other

技術仕様

分類 Payload
質量 1620.00 kg
乾燥質量 1180.00 kg
総質量 1620.00 kg
長さ 2.00 m
直径 2.00 m
スパン 10.00 m
形状 Box + Pan + Ant
製造者 NPOL
バスタイプ Navigator
フェーズステータス In Orbit
所有者/国 RGMS/NPOL/RU

Most Searched